This is the latest recevied weather packets stored in our database for station/object ALTO-WX. If no packets are shown the sender has not sent any weather packets the latest 10 day(s).
| Time | Temp. | Humidity | Pressure | Rain* | Wind** | Luminosity | Snow |
|---|---|---|---|---|---|---|---|
| 1777959059 | 15° C | 62% | 969.6 hPa | 0 mm | - | - | - |
| 1777958135 | 15.56° C | 62% | 969.6 hPa | 0 mm | - | - | - |
| 1777957264 | 16.11° C | 62% | 969.6 hPa | 0 mm | - | - | - |
| 1777956335 | 16.11° C | 64% | 969.5 hPa | 0 mm | - | - | - |
| 1777955457 | 16.11° C | 64% | 969.5 hPa | 0 mm | - | - | - |
| 1777954535 | 16.67° C | 64% | 969.4 hPa | 0.25 mm | - | - | - |
| 1777953670 | 16.67° C | 64% | 969.4 hPa | 0.25 mm | - | - | - |
| 1777952732 | 17.22° C | 57% | 969.3 hPa | 0 mm | - | - | - |
| 1777951855 | 16.67° C | 65% | 969.3 hPa | 0 mm | - | - | - |
| 1777950935 | 16.67° C | 65% | 969.3 hPa | 0 mm | - | - | - |
| 1777950066 | 16.67° C | 65% | 969.3 hPa | 0 mm | - | - | - |
| 1777949135 | 17.22° C | 51% | 969.6 hPa | 0 mm | - | - | - |
| 1777948256 | 17.22° C | 56% | 969.6 hPa | 0 mm | - | - | - |
| 1777947335 | 17.22° C | 56% | 969.5 hPa | 0 mm | - | - | - |
| 1777946466 | 17.78° C | 56% | 969.5 hPa | 0 mm | - | - | - |
| 1777945535 | 17.78° C | 46% | 968.7 hPa | 0 mm | - | - | - |
| 1777944653 | 17.78° C | 46% | 968.7 hPa | 0 mm | - | - | - |
| 1777943736 | 17.78° C | 46% | 968.6 hPa | 0 mm | - | - | - |
| 1777942862 | 18.33° C | 46% | 968.6 hPa | 0 mm | - | - | - |
| 1777941935 | 18.89° C | 41% | 969.4 hPa | 0 mm | - | - | - |
| 1777941052 | 18.89° C | 40% | 970.1 hPa | 0 mm | - | - | - |
| 1777940134 | 19.44° C | 40% | 970 hPa | 0 mm | - | - | - |
| 1777939269 | 20° C | 40% | 970 hPa | 0 mm | - | - | - |
| 1777938335 | 20.56° C | 34% | 970.1 hPa | 0 mm | - | - | - |
| 1777937453 | 21.11° C | 35% | 969.9 hPa | 0 mm | - | - | - |
* Rain latest hour (hover to see other rain measurements)
** Current wind speed in m/s (hover to see current wind gust speed)